| time (UTC) | temp F | wind direction | speed MPH | gust MPH | rain 1hr in | rain 24hr in | rain mn in | humidity % | barometer mb |
| 20260510103816 | 51 | 0.0 | 0.0 | 0.00 | 0.00 | 0.00 | 99 | 1011.1 | |
| 20260510102803 | 51 | 0.0 | 0.0 | 0.00 | 0.00 | 0.00 | 99 | 1011.1 | |
| 20260510101749 | 51 | 0.0 | 1.0 | 0.00 | 0.00 | 0.00 | 99 | 1011.0 | |
| 20260510100736 | 51 | 243 | 3.0 | 3.0 | 0.00 | 0.00 | 0.00 | 99 | 1011.3 |
| 20260510095722 | 51 | 0.0 | 0.0 | 0.00 | 0.00 | 0.00 | 99 | 1011.0 | |
| 20260510094708 | 51 | 0.0 | 0.0 | 0.00 | 0.00 | 0.00 | 99 | 1011.0 | |
| 20260510093655 | 51 | 0.0 | 0.0 | 0.00 | 0.00 | 0.00 | 99 | 1010.8 | |
| 20260510092641 | 50 | 0.0 | 0.0 | 0.00 | 0.00 | 0.00 | 98 | 1010.8 | |
| 20260510091627 | 50 | 0.0 | 0.0 | 0.00 | 0.00 | 0.00 | 98 | 1010.8 | |
| 20260510091117 | 50 | 0.0 | 0.0 | 0.00 | 0.00 | 0.00 | 98 | 1010.9 | |
| 20260510090104 | 50 | 217 | 2.0 | 4.0 | 0.00 | 0.00 | 0.00 | 98 | 1010.8 |
| 20260510085050 | 50 | 264 | 1.0 | 6.0 | 0.00 | 0.00 | 0.00 | 98 | 1011.0 |
| 20260510084036 | 50 | 213 | 1.0 | 2.0 | 0.00 | 0.00 | 0.00 | 98 | 1011.0 |
| 20260510083022 | 49 | 299 | 6.0 | 7.0 | 0.00 | 0.00 | 0.00 | 98 | 1010.9 |
| 20260510082008 | 49 | 304 | 4.0 | 8.0 | 0.00 | 0.00 | 0.00 | 98 | 1010.7 |
| 20260510081035 | 49 | 0.0 | 0.0 | 0.00 | 0.00 | 0.00 | 97 | 1010.3 | |
| 20260510080001 | 49 | 0.0 | 0.0 | 0.00 | 0.00 | 0.00 | 97 | 1010.2 | |
| 20260510074948 | 49 | 0.0 | 0.0 | 0.00 | 0.00 | 0.00 | 97 | 1010.5 | |
| 20260510073914 | 49 | 0.0 | 0.0 | 0.00 | 0.00 | 0.00 | 97 | 1010.1 | |
| 20260510072900 | 49 | 260 | 5.0 | 6.0 | 0.00 | 0.00 | 0.00 | 97 | 1010.3 |
| 20260510071846 | 50 | 184 | 1.0 | 4.0 | 0.00 | 0.00 | 0.00 | 96 | 1010.1 |
| 20260510070833 | 50 | 0.0 | 0.0 | 0.00 | 0.00 | 0.00 | 95 | 1010.0 | |
| 20260510065817 | 49 | 0.0 | 0.0 | 0.00 | 0.00 | 0.00 | 94 | 1010.0 | |
| 20260510064802 | 50 | 0.0 | 0.0 | 0.00 | 0.00 | 0.00 | 93 | 1009.7 | |
| 20260510063749 | 51 | 0.0 | 0.0 | 0.00 | 0.00 | 0.00 | 94 | 1009.7 | |
| 20260510062734 | 50 | 0.0 | 0.0 | 0.00 | 0.00 | 0.00 | 93 | 1009.7 | |
| 20260510061719 | 51 | 0.0 | 0.0 | 0.00 | 0.00 | 0.00 | 93 | 1009.7 | |
| 20260510060706 | 51 | 0.0 | 0.0 | 0.00 | 0.00 | 0.00 | 94 | 1009.9 | |
| 20260510055653 | 51 | 0.0 | 0.0 | 0.00 | 0.00 | 0.00 | 93 | 1009.9 | |
| 20260510054639 | 51 | 0.0 | 0.0 | 0.00 | 0.00 | 0.00 | 94 | 1010.2 | |
| 20260510053625 | 50 | 0.0 | 0.0 | 0.00 | 0.00 | 0.00 | 93 | 1010.0 | |
| 20260510052613 | 52 | 0.0 | 0.0 | 0.00 | 0.00 | 0.00 | 92 | 1010.1 | |
| 20260510051558 | 52 | 0.0 | 0.0 | 0.00 | 0.00 | 0.00 | 92 | 1010.4 | |
| 20260510050544 | 51 | 0.0 | 0.0 | 0.00 | 0.00 | 0.00 | 93 | 1010.4 | |
| 20260510045532 | 52 | 0.0 | 0.0 | 0.00 | 0.00 | 0.00 | 92 | 1010.3 | |
| 20260510044517 | 52 | 0.0 | 0.0 | 0.00 | 0.00 | 0.00 | 92 | 1010.3 | |
| 20260510043504 | 53 | 0.0 | 0.0 | 0.00 | 0.00 | 0.00 | 92 | 1010.6 | |
| 20260510042510 | 52 | 0.0 | 0.0 | 0.00 | 0.00 | 0.00 | 93 | 1010.3 | |
| 20260510041436 | 52 | 0.0 | 0.0 | 0.00 | 0.00 | 0.00 | 94 | 1010.4 | |
| 20260510040423 | 51 | 0.0 | 0.0 | 0.00 | 0.00 | 0.00 | 95 | 1010.7 | |
| 20260510035409 | 51 | 0.0 | 0.0 | 0.00 | 0.00 | 0.00 | 95 | 1010.5 | |
| 20260510034416 | 51 | 0.0 | 0.0 | 0.00 | 0.00 | 0.00 | 94 | 1010.2 | |
| 20260510033342 | 51 | 0.0 | 0.0 | 0.00 | 0.00 | 0.00 | 93 | 1010.1 | |
| 20260510032328 | 52 | 0.0 | 0.0 | 0.00 | 0.00 | 0.00 | 92 | 1010.2 | |
| 20260510031314 | 53 | 0.0 | 0.0 | 0.00 | 0.00 | 0.00 | 93 | 1010.1 | |
| 20260510030302 | 53 | 0.0 | 0.0 | 0.00 | 0.00 | 0.00 | 93 | 1010.1 | |
| 20260510025307 | 53 | 0.0 | 0.0 | 0.00 | 0.00 | 0.00 | 93 | 1010.0 | |
| 20260510024233 | 54 | 0.0 | 0.0 | 0.00 | 0.00 | 0.00 | 93 | 1010.1 | |
| 20260510023240 | 53 | 0.0 | 0.0 | 0.00 | 0.00 | 0.00 | 93 | 1010.2 | |
| 20260510022206 | 53 | 0.0 | 0.0 | 0.00 | 0.00 | 0.00 | 93 | 1009.8 | |
| 20260510021153 | 53 | 0.0 | 0.0 | 0.00 | 0.00 | 0.00 | 93 | 1009.9 | |
| 20260510020140 | 54 | 0.0 | 0.0 | 0.00 | 0.00 | 0.00 | 92 | 1009.9 | |
| 20260510015126 | 54 | 0.0 | 0.0 | 0.00 | 0.00 | 0.00 | 93 | 1009.9 | |
| 20260510014153 | 54 | 0.0 | 0.0 | 0.00 | 0.00 | 0.00 | 93 | 1009.7 | |
| 20260510013059 | 55 | 0.0 | 0.0 | 0.00 | 0.00 | 0.00 | 92 | 1009.9 | |
| 20260510012046 | 55 | 0.0 | 0.0 | 0.00 | 0.00 | 0.00 | 92 | 1009.8 | |
| 20260510011052 | 54 | 0.0 | 0.0 | 0.00 | 0.00 | 0.00 | 93 | 1009.6 | |
| 20260510010019 | 55 | 0.0 | 0.0 | 0.00 | 0.00 | 0.00 | 92 | 1009.6 | |
| 20260510005025 | 55 | 0.0 | 0.0 | 0.00 | 0.00 | 0.00 | 92 | 1009.4 | |
| 20260510003951 | 56 | 0.0 | 0.0 | 0.00 | 0.00 | 0.00 | 93 | 1009.5 | |
| 20260510002938 | 56 | 0.0 | 0.0 | 0.00 | 0.00 | 0.00 | 91 | 1009.3 | |
| 20260510001924 | 57 | 0.0 | 0.0 | 0.00 | 0.00 | 0.00 | 90 | 1009.3 | |
| 20260510000911 | 57 | 0.0 | 0.0 | 0.00 | 0.00 | 0.00 | 90 | 1009.3 | |
| 20260509235857 | 57 | 0.0 | 0.0 | 0.00 | 0.00 | 0.00 | 91 | 1009.4 | |
| 20260509234844 | 58 | 0.0 | 0.0 | 0.00 | 0.00 | 0.00 | 89 | 1009.3 | |
| 20260509233830 | 58 | 0.0 | 0.0 | 0.00 | 0.00 | 0.00 | 88 | 1009.3 | |
| 20260509232817 | 57 | 0.0 | 0.0 | 0.00 | 0.00 | 0.00 | 89 | 1009.4 | |
| 20260509231803 | 58 | 0.0 | 0.0 | 0.00 | 0.00 | 0.00 | 86 | 1009.3 | |
| 20260509230750 | 59 | 0.0 | 0.0 | 0.00 | 0.00 | 0.00 | 87 | 1009.1 | |
| 20260509225736 | 59 | 184 | 2.0 | 4.0 | 0.00 | 0.00 | 0.00 | 86 | 1009.3 |
| 20260509224722 | 59 | 0.0 | 0.0 | 0.00 | 0.00 | 0.00 | 88 | 1009.4 | |
| 20260509223709 | 58 | 0.0 | 0.0 | 0.00 | 0.00 | 0.00 | 92 | 1009.3 | |
| 20260509222655 | 56 | 179 | 2.0 | 3.0 | 0.00 | 0.00 | 0.00 | 92 | 1009.4 |
| 20260509221642 | 57 | 0.0 | 2.0 | 0.00 | 0.00 | 0.00 | 92 | 1009.3 | |
| 20260509220628 | 57 | 0.0 | 1.0 | 0.00 | 0.00 | 0.00 | 92 | 1009.6 | |
| 20260509220118 | 57 | 0.0 | 4.0 | 0.00 | 0.00 | 0.00 | 92 | 1009.4 | |
| 20260509215104 | 57 | 160 | 1.0 | 2.0 | 0.00 | 0.00 | 0.00 | 92 | 1009.2 |
| 20260509214111 | 56 | 193 | 0.0 | 2.0 | 0.00 | 0.00 | 0.00 | 93 | 1009.4 |
| 20260509213037 | 56 | 0.0 | 1.0 | 0.00 | 0.00 | 0.00 | 93 | 1009.5 | |
| 20260509212023 | 57 | 0.0 | 2.0 | 0.00 | 0.00 | 0.00 | 93 | 1009.6 | |
| 20260509211010 | 57 | 0.0 | 0.0 | 0.00 | 0.00 | 0.00 | 92 | 1009.4 | |
| 20260509205956 | 57 | 0.0 | 0.0 | 0.00 | 0.00 | 0.00 | 93 | 1009.7 | |
| 20260509204942 | 55 | 0.0 | 2.0 | 0.00 | 0.00 | 0.00 | 94 | 1009.4 | |
| 20260509203929 | 55 | 237 | 2.0 | 3.0 | 0.00 | 0.00 | 0.00 | 93 | 1009.4 |
| 20260509202915 | 55 | 0.0 | 0.0 | 0.00 | 0.00 | 0.00 | 93 | 1009.2 | |
| 20260509201902 | 55 | 0.0 | 3.0 | 0.00 | 0.00 | 0.00 | 94 | 1009.1 | |
| 20260509200849 | 55 | 268 | 3.0 | 4.0 | 0.00 | 0.00 | 0.00 | 94 | 1009.5 |
| 20260509195835 | 55 | 186 | 1.0 | 6.0 | 0.00 | 0.00 | 0.00 | 95 | 1009.3 |
| 20260509194821 | 55 | 257 | 4.0 | 4.0 | 0.00 | 0.00 | 0.00 | 94 | 1009.6 |
| 20260509193808 | 54 | 34 | 4.0 | 7.0 | 0.00 | 0.00 | 0.00 | 94 | 1009.8 |
| 20260509192754 | 55 | 92 | 0.0 | 3.0 | 0.00 | 0.00 | 0.00 | 94 | 1010.1 |
| 20260509191740 | 55 | 184 | 0.0 | 3.0 | 0.00 | 0.00 | 0.00 | 94 | 1010.3 |
| 20260509190726 | 55 | 253 | 4.0 | 6.0 | 0.00 | 0.00 | 0.00 | 94 | 1010.2 |
| 20260509185713 | 55 | 292 | 4.0 | 10.0 | 0.00 | 0.00 | 0.00 | 94 | 1010.5 |
| 20260509184720 | 55 | 328 | 5.0 | 9.0 | 0.00 | 0.00 | 0.00 | 94 | 1010.4 |
| 20260509183646 | 55 | 246 | 3.0 | 6.0 | 0.00 | 0.00 | 0.00 | 94 | 1010.4 |
| 20260509182632 | 54 | 249 | 3.0 | 6.0 | 0.00 | 0.00 | 0.00 | 93 | 1010.5 |
| 20260509181619 | 55 | 192 | 4.0 | 6.0 | 0.00 | 0.00 | 0.00 | 92 | 1010.6 |
| 20260509180606 | 55 | 249 | 2.0 | 3.0 | 0.00 | 0.00 | 0.00 | 90 | 1010.8 |
| 20260509175552 | 55 | 302 | 4.0 | 4.0 | 0.00 | 0.00 | 0.00 | 88 | 1011.0 |
| 20260509174558 | 57 | 313 | 6.0 | 8.0 | 0.00 | 0.00 | 0.00 | 83 | 1010.9 |
| 20260509173524 | 58 | 208 | 3.0 | 4.0 | 0.00 | 0.00 | 0.00 | 79 | 1010.8 |
| 20260509172511 | 58 | 228 | 3.0 | 4.0 | 0.00 | 0.00 | 0.00 | 79 | 1010.7 |
| 20260509171558 | 57 | 221 | 3.0 | 4.0 | 0.00 | 0.00 | 0.00 | 83 | 1010.5 |
| 20260509170444 | 57 | 175 | 1.0 | 6.0 | 0.00 | 0.00 | 0.00 | 84 | 1010.6 |
| 20260509165430 | 58 | 352 | 8.0 | 9.0 | 0.00 | 0.00 | 0.00 | 87 | 1010.6 |
| 20260509164417 | 58 | 215 | 3.0 | 6.0 | 0.00 | 0.00 | 0.00 | 86 | 1010.6 |
| 20260509163423 | 57 | 261 | 2.0 | 6.0 | 0.00 | 0.00 | 0.00 | 86 | 1010.6 |
| 20260509162349 | 58 | 207 | 2.0 | 3.0 | 0.00 | 0.00 | 0.00 | 87 | 1010.7 |
| 20260509161335 | 58 | 221 | 3.0 | 7.0 | 0.00 | 0.00 | 0.00 | 83 | 1011.1 |
| 20260509160322 | 59 | 318 | 6.0 | 8.0 | 0.00 | 0.00 | 0.00 | 81 | 1011.3 |
| 20260509155310 | 60 | 231 | 3.0 | 7.0 | 0.00 | 0.00 | 0.00 | 78 | 1011.4 |
| 20260509154256 | 61 | 214 | 1.0 | 3.0 | 0.00 | 0.00 | 0.00 | 75 | 1011.4 |
| 20260509153241 | 61 | 194 | 2.0 | 8.0 | 0.00 | 0.00 | 0.00 | 74 | 1011.3 |
| 20260509152228 | 61 | 227 | 4.0 | 7.0 | 0.00 | 0.00 | 0.00 | 72 | 1011.6 |
| 20260509151214 | 61 | 231 | 3.0 | 9.0 | 0.00 | 0.00 | 0.00 | 71 | 1011.4 |
| 20260509150202 | 61 | 204 | 1.0 | 6.0 | 0.00 | 0.00 | 0.00 | 72 | 1011.4 |
| 20260509145146 | 61 | 205 | 4.0 | 4.0 | 0.00 | 0.00 | 0.00 | 72 | 1011.3 |
| 20260509144133 | 61 | 223 | 5.0 | 9.0 | 0.00 | 0.00 | 0.00 | 71 | 1011.2 |
| 20260509143626 | 61 | 260 | 6.0 | 9.0 | 0.00 | 0.00 | 0.00 | 71 | 1011.1 |
| 20260509142613 | 60 | 241 | 2.0 | 10.0 | 0.00 | 0.00 | 0.00 | 72 | 1011.1 |
| 20260509141559 | 61 | 222 | 2.0 | 7.0 | 0.00 | 0.00 | 0.00 | 72 | 1010.9 |
| 20260509140545 | 61 | 206 | 3.0 | 6.0 | 0.00 | 0.00 | 0.00 | 73 | 1010.8 |
| 20260509135531 | 60 | 194 | 0.0 | 6.0 | 0.00 | 0.00 | 0.00 | 75 | 1010.9 |
| 20260509134518 | 60 | 196 | 7.0 | 10.0 | 0.00 | 0.00 | 0.00 | 76 | 1011.0 |
| 20260509133505 | 59 | 150 | 2.0 | 6.0 | 0.00 | 0.00 | 0.00 | 78 | 1010.8 |
| 20260509132451 | 59 | 206 | 3.0 | 7.0 | 0.00 | 0.00 | 0.00 | 78 | 1010.7 |
| 20260509131438 | 59 | 202 | 4.0 | 6.0 | 0.00 | 0.00 | 0.00 | 79 | 1011.0 |
| 20260509130425 | 59 | 175 | 3.0 | 7.0 | 0.00 | 0.00 | 0.00 | 80 | 1010.9 |
| 20260509125411 | 58 | 201 | 3.0 | 6.0 | 0.00 | 0.00 | 0.00 | 81 | 1011.1 |
| 20260509124357 | 58 | 172 | 1.0 | 6.0 | 0.00 | 0.00 | 0.00 | 81 | 1011.1 |
| 20260509123342 | 57 | 165 | 3.0 | 4.0 | 0.00 | 0.00 | 0.00 | 81 | 1011.0 |
| 20260509122350 | 57 | 193 | 0.0 | 7.0 | 0.00 | 0.00 | 0.00 | 83 | 1011.1 |
| 20260509121315 | 56 | 163 | 3.0 | 6.0 | 0.00 | 0.00 | 0.00 | 83 | 1010.9 |
| 20260509120301 | 55 | 200 | 0.0 | 3.0 | 0.00 | 0.00 | 0.00 | 83 | 1011.0 |
| 20260509115247 | 55 | 180 | 1.0 | 2.0 | 0.00 | 0.00 | 0.00 | 82 | 1011.0 |
| 20260509114234 | 55 | 197 | 1.0 | 2.0 | 0.00 | 0.00 | 0.00 | 82 | 1010.8 |
| 20260509113220 | 55 | 0.0 | 1.0 | 0.00 | 0.00 | 0.00 | 84 | 1011.0 | |
| 20260509112207 | 54 | 0.0 | 1.0 | 0.00 | 0.00 | 0.00 | 81 | 1011.0 | |
| 20260509111153 | 54 | 0.0 | 1.0 | 0.00 | 0.00 | 0.00 | 81 | 1011.0 | |
| 20260509110200 | 55 | 172 | 0.0 | 1.0 | 0.00 | 0.00 | 0.00 | 79 | 1010.9 |
| 20260509105126 | 54 | 184 | 1.0 | 1.0 | 0.00 | 0.00 | 0.00 | 80 | 1010.8 |
| 20260509104617 | 55 | 187 | 0.0 | 2.0 | 0.00 | 0.00 | 0.00 | 79 | 1010.7 |